Phoenix, AZ

6:03 PM MST on December 11, 2017 (GMT -0700)
Phoenix Sky Harbor International

Weather History for KPHX - January, 2013

Change the Weather History Date:

Tuesday, January 8, 2013

  Actual Average Record
Temperature  
Mean Temperature 53 °F 56 °F  
Max Temperature 67 °F 66 °F 81 °F (2002)
Min Temperature 39 °F 45 °F 19 °F (1913)
Degree Days  
Heating Degree Days 12 9  
Month to date heating degree days 111 78  
Since 1 July heating degree days 392 479  
Cooling Degree Days 0 0  
Month to date cooling degree days 0 0  
Year to date cooling degree days 0 0  
Growing Degree Days 2 (Base 50)    
Moisture  
Dew Point 23 °F    
Average Humidity 39    
Maximum Humidity 64    
Minimum Humidity 14    
Precipitation  
Precipitation 0.00 in 0.03 in 1.22 in (1993)
Month to date precipitation 0.00 0.24  
Year to date precipitation 0.00 0.24  
Snow  
Snow 0.00 in - - ()
Month to date snowfall 0.0  
Year to date snowfall 0.0  
Since 1 July snowfall 0.0  
Snow Depth 0.00 in    
Sea Level Pressure  
Sea Level Pressure 29.99 in    
Wind  
Wind Speed 4 mph (SE)    
Max Wind Speed 10 mph    
Max Gust Speed 17 mph    
Visibility 10 miles    
Events      
T = Trace of Precipitation, MM = Missing Value Source: NWS Daily Summary

Daily Weather History Graph

Daily Weather History Graph

Search for Another Location

Airport or City:

Trip Planner

Search our weather history database for the weather conditions in past years. The results will help you decide how hot, cold, wet, or windy it might be!

Date:

Astronomy

Jan. 08, 2013 Rise Set
Actual Time 7:32 AM MST 5:37 PM MST
Civil Twilight 7:05 AM MST 6:04 PM MST
Nautical Twilight 6:34 AM MST 6:35 PM MST
Astronomical Twilight 6:04 AM MST 7:05 PM MST
Moon 4:10 AM MST (1/8) 2:42 PM MST (1/8)
Length of Visible Light 10h 58m
Length of Day
10h 04m
Waning Crescent, 13% of the Moon is Illuminated
Jan 8
Waning Crescent
Jan 11
New
Jan 18
First Quarter
Jan 26
Full
Feb 3
Last Quarter

Hourly Weather History & Observations

Time (MST) Temp. Windchill Dew Point Humidity Pressure Visibility Wind Dir Wind Speed Gust Speed Precip Events Conditions
12:51 AM 48.0 °F - 25.0 °F 41% 29.89 in 10.0 mi West 4.6 mph - N/A   Clear
1:51 AM 45.0 °F - 26.1 °F 48% 29.89 in 10.0 mi Calm Calm - N/A   Clear
2:51 AM 43.0 °F 41.3 °F 27.0 °F 53% 29.90 in 10.0 mi ENE 3.5 mph - N/A   Clear
3:51 AM 43.0 °F 41.3 °F 27.0 °F 53% 29.90 in 10.0 mi East 3.5 mph - N/A   Clear
4:51 AM 43.0 °F - 27.0 °F 53% 29.92 in 10.0 mi Calm Calm - N/A   Clear
5:51 AM 41.0 °F 36.4 °F 27.0 °F 57% 29.94 in 10.0 mi East 6.9 mph - N/A   Clear
6:51 AM 39.9 °F 35.1 °F 27.0 °F 60% 29.97 in 10.0 mi East 6.9 mph - N/A   Clear
7:51 AM 39.9 °F 36.7 °F 28.0 °F 63% 29.98 in 10.0 mi East 4.6 mph - N/A   Clear
8:51 AM 44.6 °F - 28.4 °F 53% 30.03 in 10.0 mi Calm Calm - N/A   Partly Cloudy
9:51 AM 48.9 °F - 28.0 °F 44% 30.04 in 10.0 mi ESE 4.6 mph - N/A   Partly Cloudy
10:51 AM 54.0 °F - 25.0 °F 33% 30.04 in 10.0 mi SW 3.5 mph - N/A   Partly Cloudy
11:51 AM 57.9 °F - 23.0 °F 26% 30.02 in 10.0 mi SSW 3.5 mph - N/A   Partly Cloudy
12:51 PM 61.0 °F - 21.0 °F 21% 29.99 in 10.0 mi SW 5.8 mph - N/A   Partly Cloudy
1:51 PM 64.0 °F - 19.0 °F 18% 29.97 in 10.0 mi Calm Calm - N/A   Partly Cloudy
2:51 PM 64.0 °F - 19.0 °F 18% 29.96 in 10.0 mi West 3.5 mph - N/A   Partly Cloudy
3:51 PM 64.9 °F - 19.0 °F 17% 29.96 in 10.0 mi Calm Calm - N/A   Scattered Clouds
4:51 PM 66.0 °F - 16.0 °F 15% 29.97 in 10.0 mi West 6.9 mph - N/A   Scattered Clouds
5:51 PM 64.0 °F - 17.1 °F 16% 29.98 in 10.0 mi WNW 6.9 mph - N/A   Scattered Clouds
6:51 PM 63.0 °F - 17.1 °F 17% 30.00 in 10.0 mi West 3.5 mph - N/A   Scattered Clouds
7:51 PM 57.9 °F - 19.9 °F 23% 30.03 in 10.0 mi Calm Calm - N/A   Partly Cloudy
8:51 PM 55.9 °F - 21.0 °F 26% 30.04 in 10.0 mi East 3.5 mph - N/A   Clear
9:51 PM 53.1 °F - 23.0 °F 31% 30.06 in 10.0 mi Calm Calm - N/A   Clear
10:51 PM 51.1 °F - 25.0 °F 36% 30.07 in 10.0 mi ENE 6.9 mph - N/A   Clear
11:51 PM 50.0 °F - 26.1 °F 39% 30.08 in 10.0 mi East 4.6 mph - N/A   Clear